Time,TemperatureF,DewpointF,PressureIn,WindDirection,WindDirectionDegrees,WindSpeedMPH,WindSpeedGustMPH,Humidity,HourlyPrecipIn,Conditions,Clouds,dailyrainin,SoftwareType,DateUTC
2013-03-11 00:04:00,19.0,11.2,27.15,NW,315,3.5,3.5,71,0.00,RA,,0.00,WeatherDisplay:10.37,2013-03-11 05:04:00,
2013-03-11 00:09:00,19.0,11.2,27.15,NW,315,3.5,3.5,71,0.00,RA,,0.00,WeatherDisplay:10.37,2013-03-11 05:09:00,
2013-03-11 00:14:00,19.2,11.4,27.15,NW,315,3.5,3.5,71,0.00,CLR,,0.00,WeatherDisplay:10.37,2013-03-11 05:14:00,
2013-03-11 00:19:00,19.2,11.4,27.15,NW,315,1.1,1.6,71,0.00,CLR,,0.00,WeatherDisplay:10.37,2013-03-11 05:19:00,
2013-03-11 00:24:00,19.4,12.8,27.15,NW,315,3.5,3.5,75,0.00,CLR,,0.00,WeatherDisplay:10.37,2013-03-11 05:24:00,
2013-03-11 00:30:00,19.4,12.8,27.15,NW,315,2.3,2.3,75,0.00,CLR,,0.00,WeatherDisplay:10.37,2013-03-11 05:30:00,
2013-03-11 00:35:00,19.4,12.8,27.15,NW,315,1.1,0.0,75,0.00,CLR,,0.00,WeatherDisplay:10.37,2013-03-11 05:35:00,
2013-03-11 00:40:00,19.2,11.4,27.15,NW,315,0.0,0.0,71,0.00,CLR,,0.00,WeatherDisplay:10.37,2013-03-11 05:40:00,
2013-03-11 00:45:00,19.0,11.2,27.14,North,0,0.0,0.7,71,0.00,CLR,,0.00,WeatherDisplay:10.37,2013-03-11 05:45:00,
2013-03-11 00:50:00,19.0,11.2,27.14,NW,315,0.0,0.0,71,0.00,CLR,,0.00,WeatherDisplay:10.37,2013-03-11 05:50:00,
2013-03-11 00:56:00,19.0,11.2,27.15,North,0,1.1,0.0,71,0.00,CLR,,0.00,WeatherDisplay:10.37,2013-03-11 05:56:00,
2013-03-11 01:01:00,18.9,10.7,27.15,NW,315,2.3,2.3,70,0.00,CLR,,0.00,WeatherDisplay:10.37,2013-03-11 06:01:00,
2013-03-11 01:06:00,18.9,10.7,27.15,NW,315,2.3,2.3,70,0.00,CLR,,0.00,WeatherDisplay:10.37,2013-03-11 06:06:00,
2013-03-11 01:11:00,18.7,10.5,27.15,NW,315,0.0,0.0,70,0.00,CLR,,0.00,WeatherDisplay:10.37,2013-03-11 06:11:00,
2013-03-11 01:16:00,18.7,10.5,27.14,NW,315,3.5,3.5,70,0.00,CLR,,0.00,WeatherDisplay:10.37,2013-03-11 06:16:00,
2013-03-11 01:22:00,18.9,10.7,27.14,NE,45,0.0,0.0,70,0.00,CLR,,0.00,WeatherDisplay:10.37,2013-03-11 06:22:00,
2013-03-11 01:27:00,19.0,11.2,27.14,North,0,3.5,3.5,71,0.00,CLR,,0.00,WeatherDisplay:10.37,2013-03-11 06:27:00,
2013-03-11 01:32:00,19.0,10.9,27.14,NW,315,3.5,3.5,70,0.00,CLR,,0.00,WeatherDisplay:10.37,2013-03-11 06:32:00,
2013-03-11 01:37:00,19.2,11.0,27.14,NW,315,5.8,5.8,70,0.00,CLR,,0.00,WeatherDisplay:10.37,2013-03-11 06:37:00,
2013-03-11 01:42:00,19.0,10.9,27.14,NW,315,1.1,1.1,70,0.00,CLR,,0.00,WeatherDisplay:10.37,2013-03-11 06:42:00,
2013-03-11 01:47:00,19.0,10.5,27.13,NW,315,2.3,2.3,69,0.00,CLR,,0.00,WeatherDisplay:10.37,2013-03-11 06:47:00,
2013-03-11 01:52:00,18.9,10.4,27.13,North,0,0.0,0.0,69,0.00,CLR,,0.00,WeatherDisplay:10.37,2013-03-11 06:52:00,
2013-03-11 01:57:00,18.7,10.2,27.13,NW,315,3.5,3.5,69,0.00,CLR,,0.00,WeatherDisplay:10.37,2013-03-11 06:57:00,
2013-03-11 02:02:00,18.7,10.2,27.13,NW,315,1.1,0.0,69,0.00,CLR,,0.00,WeatherDisplay:10.37,2013-03-11 07:02:00,
2013-03-11 02:07:00,18.5,10.3,27.13,NW,315,2.3,2.3,70,0.00,CLR,,0.00,WeatherDisplay:10.37,2013-03-11 07:07:00,
2013-03-11 02:13:00,18.7,10.5,27.13,NW,315,5.8,5.8,70,0.00,CLR,,0.00,WeatherDisplay:10.37,2013-03-11 07:13:00,
2013-03-11 02:18:00,19.0,11.2,27.13,NW,315,4.6,4.6,71,0.00,CLR,,0.00,WeatherDisplay:10.37,2013-03-11 07:18:00,
2013-03-11 02:23:00,19.0,10.9,27.13,NW,315,3.5,3.5,70,0.00,CLR,,0.00,WeatherDisplay:10.37,2013-03-11 07:23:00,
2013-03-11 02:28:00,19.0,10.9,27.13,NW,315,3.5,3.5,70,0.00,CLR,,0.00,WeatherDisplay:10.37,2013-03-11 07:28:00,
2013-03-11 02:33:00,19.2,10.7,27.13,NW,315,3.5,3.5,69,0.00,CLR,,0.00,WeatherDisplay:10.37,2013-03-11 07:33:00,
2013-03-11 02:38:00,19.2,10.7,27.13,NW,315,3.5,3.5,69,0.00,CLR,,0.00,WeatherDisplay:10.37,2013-03-11 07:38:00,
2013-03-11 02:44:00,19.2,10.4,27.12,NW,315,2.3,2.3,68,0.00,CLR,,0.00,WeatherDisplay:10.37,2013-03-11 07:44:00,
2013-03-11 02:49:00,19.0,10.2,27.12,NW,315,2.3,2.3,68,0.00,CLR,,0.00,WeatherDisplay:10.37,2013-03-11 07:49:00,
2013-03-11 02:54:00,19.0,10.2,27.12,NW,315,4.6,4.6,68,0.00,CLR,,0.00,WeatherDisplay:10.37,2013-03-11 07:54:00,
2013-03-11 02:59:00,19.2,10.4,27.12,WNW,292,3.5,3.5,68,0.00,CLR,,0.00,WeatherDisplay:10.37,2013-03-11 07:59:00,
2013-03-11 03:04:00,19.2,10.4,27.12,NW,315,3.5,3.5,68,0.00,CLR,,0.00,WeatherDisplay:10.37,2013-03-11 08:04:00,
2013-03-11 03:09:00,19.0,10.2,27.12,NW,315,3.5,3.5,68,0.00,CLR,,0.00,WeatherDisplay:10.37,2013-03-11 08:09:00,
2013-03-11 03:15:00,18.9,10.0,27.11,NW,315,2.3,2.3,68,0.00,CLR,,0.00,WeatherDisplay:10.37,2013-03-11 08:15:00,
2013-03-11 03:20:00,18.7,9.9,27.11,NW,315,1.1,1.1,68,0.00,CLR,,0.00,WeatherDisplay:10.37,2013-03-11 08:20:00,
2013-03-11 03:25:00,18.3,9.5,27.11,NW,315,2.3,2.3,68,0.00,CLR,,0.00,WeatherDisplay:10.37,2013-03-11 08:25:00,
2013-03-11 03:30:00,18.1,9.3,27.10,NW,315,2.3,2.3,68,0.00,CLR,,0.00,WeatherDisplay:10.37,2013-03-11 08:30:00,
2013-03-11 03:35:00,18.0,9.2,27.09,North,0,2.3,2.3,68,0.00,CLR,,0.00,WeatherDisplay:10.37,2013-03-11 08:35:00,
2013-03-11 03:41:00,17.8,9.0,27.10,NW,315,1.1,0.0,68,0.00,CLR,,0.00,WeatherDisplay:10.37,2013-03-11 08:41:00,
2013-03-11 03:46:00,17.8,9.3,27.09,NW,315,2.3,2.3,69,0.00,CLR,,0.00,WeatherDisplay:10.37,2013-03-11 08:46:00,
2013-03-11 03:52:00,17.6,9.2,27.09,NW,315,2.3,2.3,69,0.00,CLR,,0.00,WeatherDisplay:10.37,2013-03-11 08:52:00,
2013-03-11 03:57:00,17.6,9.2,27.10,NW,315,1.1,1.1,69,0.00,CLR,,0.00,WeatherDisplay:10.37,2013-03-11 08:57:00,
2013-03-11 04:02:00,17.6,9.5,27.10,NW,315,2.2,2.2,70,0.00,CLR,,0.00,WeatherDisplay:10.37,2013-03-11 09:02:00,
2013-03-11 04:07:00,17.4,9.6,27.09,NW,315,1.1,1.6,71,0.00,CLR,,0.00,WeatherDisplay:10.37,2013-03-11 09:07:00,
2013-03-11 04:13:00,17.6,9.5,27.09,NW,315,0.0,0.0,70,0.00,CLR,,0.00,WeatherDisplay:10.37,2013-03-11 09:13:00,
2013-03-11 04:18:00,17.6,9.5,27.09,West,270,1.1,0.0,70,0.00,CLR,,0.00,WeatherDisplay:10.37,2013-03-11 09:18:00,
2013-03-11 04:23:00,17.4,9.6,27.08,NW,315,2.3,2.3,71,0.00,CLR,,0.00,WeatherDisplay:10.37,2013-03-11 09:23:00,
2013-03-11 04:28:00,17.4,9.6,27.08,NW,315,2.3,2.3,71,0.00,CLR,,0.00,WeatherDisplay:10.37,2013-03-11 09:28:00,
2013-03-11 04:33:00,17.4,9.6,27.08,NNW,338,2.3,2.3,71,0.00,CLR,,0.00,WeatherDisplay:10.37,2013-03-11 09:33:00,
2013-03-11 04:39:00,17.4,9.6,27.08,NW,315,3.5,3.5,71,0.00,CLR,,0.00,WeatherDisplay:10.37,2013-03-11 09:39:00,
2013-03-11 04:44:00,17.4,9.6,27.08,NW,315,3.5,3.5,71,0.00,CLR,,0.00,WeatherDisplay:10.37,2013-03-11 09:44:00,
2013-03-11 04:49:00,17.2,9.4,27.08,NW,315,3.5,3.5,71,0.00,CLR,,0.00,WeatherDisplay:10.37,2013-03-11 09:49:00,
2013-03-11 04:54:00,17.2,9.4,27.08,NW,315,3.5,3.5,71,0.00,CLR,,0.00,WeatherDisplay:10.37,2013-03-11 09:54:00,
2013-03-11 04:59:00,17.2,9.8,27.07,NE,45,1.1,1.1,72,0.00,CLR,,0.00,WeatherDisplay:10.37,2013-03-11 09:59:00,
2013-03-11 05:04:00,17.2,9.8,27.08,NW,315,1.1,1.1,72,0.00,CLR,,0.00,WeatherDisplay:10.37,2013-03-11 10:04:00,
2013-03-11 05:10:00,17.1,9.6,27.08,NW,315,3.8,3.8,72,0.00,CLR,,0.00,WeatherDisplay:10.37,2013-03-11 10:10:00,
2013-03-11 05:15:00,16.9,9.4,27.07,West,270,1.1,0.0,72,0.00,CLR,,0.00,WeatherDisplay:10.37,2013-03-11 10:15:00,
2013-03-11 05:20:00,16.9,9.4,27.06,NW,315,2.3,0.0,72,0.00,CLR,,0.00,WeatherDisplay:10.37,2013-03-11 10:20:00,
2013-03-11 05:25:00,16.9,9.4,27.06,NW,315,2.3,2.3,72,0.00,CLR,,0.00,WeatherDisplay:10.37,2013-03-11 10:25:00,
2013-03-11 05:30:00,16.7,9.2,27.06,NW,315,1.1,0.0,72,0.00,CLR,,0.00,WeatherDisplay:10.37,2013-03-11 10:30:00,
2013-03-11 05:35:00,16.7,9.2,27.07,NW,315,0.0,0.0,72,0.00,CLR,,0.00,WeatherDisplay:10.37,2013-03-11 10:35:00,
2013-03-11 05:40:00,16.9,9.4,27.06,NW,315,1.1,0.0,72,0.00,CLR,,0.00,WeatherDisplay:10.37,2013-03-11 10:40:00,
2013-03-11 05:46:00,17.1,9.9,27.06,WNW,292,3.1,3.1,73,0.00,CLR,,0.00,WeatherDisplay:10.37,2013-03-11 10:46:00,
2013-03-11 05:51:00,17.2,10.1,27.07,NW,315,2.3,2.3,73,0.00,CLR,,0.00,WeatherDisplay:10.37,2013-03-11 10:51:00,
2013-03-11 05:56:00,17.2,10.1,27.07,NW,315,3.5,3.5,73,0.00,CLR,,0.00,WeatherDisplay:10.37,2013-03-11 10:56:00,
2013-03-11 06:02:00,17.4,10.2,27.06,NW,315,2.3,0.0,73,0.00,CLR,,0.00,WeatherDisplay:10.37,2013-03-11 11:02:00,
2013-03-11 06:07:00,17.6,10.1,27.06,NW,315,2.3,0.0,72,0.00,CLR,,0.00,WeatherDisplay:10.37,2013-03-11 11:07:00,
2013-03-11 06:12:00,18.0,10.5,27.06,SE,135,0.0,0.0,72,0.00,CLR,,0.00,WeatherDisplay:10.37,2013-03-11 11:12:00,
2013-03-11 06:17:00,18.0,10.5,27.06,North,0,0.0,0.0,72,0.00,CLR,,0.00,WeatherDisplay:10.37,2013-03-11 11:17:00,
2013-03-11 06:23:00,18.0,10.1,27.06,NW,315,1.1,0.0,71,0.00,CLR,,0.00,WeatherDisplay:10.37,2013-03-11 11:23:00,
2013-03-11 06:28:00,18.1,10.3,27.06,NW,315,1.1,0.0,71,0.00,CLR,,0.00,WeatherDisplay:10.37,2013-03-11 11:28:00,
2013-03-11 06:33:00,18.3,10.5,27.07,NW,315,1.1,1.1,71,0.00,CLR,,0.00,WeatherDisplay:10.37,2013-03-11 11:33:00,
2013-03-11 06:38:00,18.3,10.5,27.07,NW,315,3.5,3.5,71,0.00,CLR,,0.00,WeatherDisplay:10.37,2013-03-11 11:38:00,
2013-03-11 06:43:00,18.5,10.7,27.06,NW,315,1.1,0.0,71,0.00,CLR,,0.00,WeatherDisplay:10.37,2013-03-11 11:43:00,
2013-03-11 06:48:00,18.7,10.8,27.07,NW,315,3.5,3.5,71,0.00,CLR,,0.00,WeatherDisplay:10.37,2013-03-11 11:48:00,
2013-03-11 06:53:00,18.7,10.8,27.07,NW,315,2.3,2.3,71,0.00,CLR,,0.00,WeatherDisplay:10.37,2013-03-11 11:53:00,
2013-03-11 06:58:00,18.9,11.0,27.08,NW,315,0.0,0.0,71,0.00,CLR,,0.00,WeatherDisplay:10.37,2013-03-11 11:58:00,
2013-03-11 07:04:00,18.9,11.0,27.07,North,0,1.1,0.0,71,0.00,CLR,,0.00,WeatherDisplay:10.37,2013-03-11 12:04:00,
2013-03-11 07:09:00,19.0,11.2,27.07,NW,315,1.1,0.0,71,0.00,CLR,,0.00,WeatherDisplay:10.37,2013-03-11 12:09:00,
2013-03-11 07:14:00,19.0,11.2,27.07,NW,315,0.0,0.0,71,0.00,CLR,,0.00,WeatherDisplay:10.37,2013-03-11 12:14:00,
2013-03-11 07:19:00,19.2,11.7,27.07,NW,315,2.3,0.0,72,0.00,CLR,,0.00,WeatherDisplay:10.37,2013-03-11 12:19:00,
2013-03-11 07:25:00,19.4,13.1,27.07,NW,315,0.0,0.0,76,0.00,CLR,,0.00,WeatherDisplay:10.37,2013-03-11 12:25:00,
2013-03-11 07:30:00,19.2,11.7,27.06,NW,315,0.0,0.0,72,0.00,CLR,,0.00,WeatherDisplay:10.37,2013-03-11 12:30:00,
2013-03-11 07:35:00,19.2,11.7,27.06,NW,315,0.0,0.0,72,0.00,CLR,,0.00,WeatherDisplay:10.37,2013-03-11 12:35:00,
2013-03-11 07:40:00,19.0,11.2,27.06,NW,315,0.0,0.0,71,0.00,CLR,,0.00,WeatherDisplay:10.37,2013-03-11 12:40:00,
2013-03-11 07:45:00,19.0,11.5,27.07,North,0,0.0,0.0,72,0.00,CLR,,0.00,WeatherDisplay:10.37,2013-03-11 12:45:00,
2013-03-11 07:51:00,19.0,11.5,27.06,NW,315,0.0,0.0,72,0.00,CLR,,0.00,WeatherDisplay:10.37,2013-03-11 12:51:00,
2013-03-11 07:57:00,19.0,11.5,27.06,NW,315,0.0,0.0,72,0.00,CLR,,0.00,WeatherDisplay:10.37,2013-03-11 12:57:00,
2013-03-11 08:02:00,19.0,11.5,27.06,NW,315,0.0,0.0,72,0.00,CLR,,0.00,WeatherDisplay:10.37,2013-03-11 13:02:00,
2013-03-11 08:07:00,18.9,11.3,27.07,NW,315,0.0,0.0,72,0.00,CLR,,0.00,WeatherDisplay:10.37,2013-03-11 13:07:00,
2013-03-11 08:12:00,19.0,11.5,27.06,NW,315,0.0,0.0,72,0.00,CLR,,0.00,WeatherDisplay:10.37,2013-03-11 13:12:00,
2013-03-11 08:18:00,19.0,11.5,27.06,NW,315,1.1,0.0,72,0.00,CLR,,0.00,WeatherDisplay:10.37,2013-03-11 13:18:00,
2013-03-11 08:23:00,19.0,11.5,27.07,NW,315,0.0,0.0,72,0.00,CLR,,0.00,WeatherDisplay:10.37,2013-03-11 13:23:00,
2013-03-11 08:28:00,19.0,11.5,27.06,NW,315,2.3,2.3,72,0.00,CLR,,0.00,WeatherDisplay:10.37,2013-03-11 13:28:00,
2013-03-11 08:33:00,19.0,11.5,27.06,NW,315,0.0,0.0,72,0.00,CLR,,0.00,WeatherDisplay:10.37,2013-03-11 13:33:00,
2013-03-11 08:38:00,19.0,11.5,27.07,NW,315,2.3,2.3,72,0.00,CLR,,0.00,WeatherDisplay:10.37,2013-03-11 13:38:00,
2013-03-11 08:44:00,18.9,11.3,27.07,NW,315,2.3,2.3,72,0.00,CLR,,0.00,WeatherDisplay:10.37,2013-03-11 13:44:00,
2013-03-11 08:49:00,19.0,11.5,27.07,NW,315,1.1,0.0,72,0.00,CLR,,0.00,WeatherDisplay:10.37,2013-03-11 13:49:00,
2013-03-11 08:54:00,19.0,11.5,27.06,NW,315,0.0,0.0,72,0.00,CLR,,0.00,WeatherDisplay:10.37,2013-03-11 13:54:00,
2013-03-11 08:59:00,19.2,11.7,27.06,NW,315,0.0,0.0,72,0.00,CLR,,0.00,WeatherDisplay:10.37,2013-03-11 13:59:00,
2013-03-11 09:04:00,19.4,13.1,27.06,NW,315,0.0,0.0,76,0.00,CLR,,0.00,WeatherDisplay:10.37,2013-03-11 14:04:00,
2013-03-11 09:10:00,19.6,13.2,27.06,NW,315,0.0,0.0,76,0.00,CLR,,0.00,WeatherDisplay:10.37,2013-03-11 14:10:00,
2013-03-11 09:15:00,20.1,13.8,27.06,NW,315,3.5,3.5,76,0.00,CLR,,0.00,WeatherDisplay:10.37,2013-03-11 14:15:00,
2013-03-11 09:20:00,20.7,14.3,27.06,NW,315,2.3,0.0,76,0.00,CLR,,0.00,WeatherDisplay:10.37,2013-03-11 14:20:00,
2013-03-11 09:25:00,21.2,14.5,27.06,NW,315,0.0,0.0,75,0.00,CLR,,0.00,WeatherDisplay:10.37,2013-03-11 14:25:00,
2013-03-11 09:30:00,21.9,15.2,27.06,NW,315,1.1,0.0,75,0.00,CLR,,0.00,WeatherDisplay:10.37,2013-03-11 14:30:00,
2013-03-11 09:36:00,23.0,15.9,27.06,NW,315,2.3,0.0,74,0.00,CLR,,0.00,WeatherDisplay:10.37,2013-03-11 14:36:00,
2013-03-11 09:41:00,23.7,16.6,27.06,NW,315,2.3,0.0,74,0.00,CLR,,0.00,WeatherDisplay:10.37,2013-03-11 14:41:00,
2013-03-11 09:46:00,24.4,17.0,27.06,NW,315,1.1,1.1,73,0.00,CLR,,0.00,WeatherDisplay:10.37,2013-03-11 14:46:00,
2013-03-11 09:51:00,25.2,17.1,27.06,NW,315,2.3,0.0,71,0.00,CLR,,0.00,WeatherDisplay:10.37,2013-03-11 14:51:00,
2013-03-11 09:56:00,25.9,17.4,27.06,NW,315,0.0,1.6,70,0.00,CLR,,0.00,WeatherDisplay:10.37,2013-03-11 14:56:00,
2013-03-11 10:02:00,26.4,17.3,27.06,NW,315,3.5,3.5,68,0.00,CLR,,0.00,WeatherDisplay:10.37,2013-03-11 15:02:00,
2013-03-11 10:07:00,27.0,17.1,27.06,NW,315,3.5,3.5,66,0.00,CLR,,0.00,WeatherDisplay:10.37,2013-03-11 15:07:00,
2013-03-11 10:12:00,27.5,17.6,27.06,NW,315,3.5,3.5,66,0.00,CLR,,0.00,WeatherDisplay:10.37,2013-03-11 15:12:00,
2013-03-11 10:17:00,27.9,17.6,27.06,NW,315,3.5,3.5,65,0.00,CLR,,0.00,WeatherDisplay:10.37,2013-03-11 15:17:00,
2013-03-11 10:22:00,28.6,19.7,27.06,NW,315,3.5,3.5,69,0.00,CLR,,0.00,WeatherDisplay:10.37,2013-03-11 15:22:00,
2013-03-11 10:27:00,29.7,20.7,27.06,NW,315,3.5,3.5,69,0.00,CLR,,0.00,WeatherDisplay:10.37,2013-03-11 15:27:00,
2013-03-11 10:32:00,31.1,21.8,27.06,North,0,3.5,0.0,68,0.00,CLR,,0.00,WeatherDisplay:10.37,2013-03-11 15:32:00,
2013-03-11 10:38:00,32.4,22.3,27.06,NW,315,4.6,4.6,66,0.00,CLR,,0.00,WeatherDisplay:10.37,2013-03-11 15:38:00,
2013-03-11 10:43:00,33.4,23.3,27.06,North,0,3.1,3.1,66,0.00,CLR,,0.00,WeatherDisplay:10.37,2013-03-11 15:43:00,
2013-03-11 10:48:00,34.2,23.2,27.06,NW,315,3.5,3.5,64,0.00,CLR,,0.00,WeatherDisplay:10.37,2013-03-11 15:48:00,
2013-03-11 10:53:00,35.2,24.3,27.06,NW,315,1.1,1.6,64,0.00,CLR,,0.00,WeatherDisplay:10.37,2013-03-11 15:53:00,
2013-03-11 10:58:00,36.5,24.3,27.06,NW,315,3.5,3.5,61,0.00,CLR,,0.00,WeatherDisplay:10.37,2013-03-11 15:58:00,
2013-03-11 11:03:00,37.9,26.5,27.06,NW,315,0.0,2.2,63,0.00,CLR,,0.00,WeatherDisplay:10.37,2013-03-11 16:03:00,
2013-03-11 11:09:00,39.0,25.9,27.06,NW,315,4.6,4.6,59,0.00,CLR,,0.00,WeatherDisplay:10.37,2013-03-11 16:09:00,
2013-03-11 11:14:00,39.7,25.3,27.06,NW,315,4.6,4.6,56,0.00,CLR,,0.00,WeatherDisplay:10.37,2013-03-11 16:14:00,
2013-03-11 11:19:00,39.9,25.5,27.06,NW,315,3.5,3.5,56,0.00,CLR,,0.00,WeatherDisplay:10.37,2013-03-11 16:19:00,
2013-03-11 11:24:00,40.3,25.4,27.06,NW,315,4.6,4.6,55,0.00,CLR,,0.00,WeatherDisplay:10.37,2013-03-11 16:24:00,
2013-03-11 11:29:00,40.8,25.9,27.06,NNW,338,6.9,6.9,55,0.00,CLR,,0.00,WeatherDisplay:10.37,2013-03-11 16:29:00,
2013-03-11 11:34:00,41.0,23.8,27.06,NW,315,6.9,6.9,50,0.00,CLR,,0.00,WeatherDisplay:10.37,2013-03-11 16:34:00,
2013-03-11 11:39:00,41.5,25.2,27.06,NW,315,5.8,5.8,52,0.00,CLR,,0.00,WeatherDisplay:10.37,2013-03-11 16:39:00,
2013-03-11 11:44:00,41.9,24.6,27.06,NNW,338,12.7,12.7,50,0.00,CLR,,0.00,WeatherDisplay:10.37,2013-03-11 16:44:00,
2013-03-11 11:49:00,42.1,24.8,27.06,NW,315,10.4,10.4,50,0.00,CLR,,0.00,WeatherDisplay:10.37,2013-03-11 16:49:00,
2013-03-11 11:55:00,41.9,25.1,27.06,NW,315,5.8,5.8,51,0.00,CLR,,0.00,WeatherDisplay:10.37,2013-03-11 16:55:00,
2013-03-11 12:00:00,41.7,24.9,27.06,NW,315,4.6,4.6,51,0.00,CLR,,0.00,WeatherDisplay:10.37,2013-03-11 17:00:00,
2013-03-11 12:05:00,42.1,26.6,27.05,NW,315,6.9,6.9,54,0.00,CLR,,0.00,WeatherDisplay:10.37,2013-03-11 17:05:00,
2013-03-11 12:10:00,42.8,26.4,27.05,NW,315,4.6,4.6,52,0.00,CLR,,0.00,WeatherDisplay:10.37,2013-03-11 17:10:00,
2013-03-11 12:16:00,43.9,27.4,27.05,WNW,292,6.9,6.9,52,0.00,CLR,,0.00,WeatherDisplay:10.37,2013-03-11 17:16:00,
2013-03-11 12:21:00,44.8,27.7,27.05,West,270,3.5,3.5,51,0.00,CLR,,0.00,WeatherDisplay:10.37,2013-03-11 17:21:00,
2013-03-11 12:26:00,45.3,27.3,27.05,North,0,6.9,6.9,49,0.00,CLR,,0.00,WeatherDisplay:10.37,2013-03-11 17:26:00,
2013-03-11 12:31:00,45.7,28.1,27.05,NW,315,6.9,6.9,50,0.00,CLR,,0.00,WeatherDisplay:10.37,2013-03-11 17:31:00,
2013-03-11 12:37:00,46.0,27.4,27.05,NW,315,3.5,3.5,48,0.00,CLR,,0.00,WeatherDisplay:10.37,2013-03-11 17:37:00,
2013-03-11 12:42:00,46.2,28.1,27.04,WNW,292,5.8,5.8,49,0.00,CLR,,0.00,WeatherDisplay:10.37,2013-03-11 17:42:00,
2013-03-11 12:47:00,46.4,28.3,27.05,NW,315,8.1,8.1,49,0.00,CLR,,0.00,WeatherDisplay:10.37,2013-03-11 17:47:00,
2013-03-11 12:52:00,46.4,28.3,27.05,NW,315,8.1,8.1,49,0.00,CLR,,0.00,WeatherDisplay:10.37,2013-03-11 17:52:00,
2013-03-11 12:57:00,46.4,28.8,27.05,NW,315,8.1,8.1,50,0.00,CLR,,0.00,WeatherDisplay:10.37,2013-03-11 17:57:00,
2013-03-11 13:02:00,46.4,28.3,27.05,NW,315,8.1,8.1,49,0.00,CLR,,0.00,WeatherDisplay:10.37,2013-03-11 18:02:00,
2013-03-11 13:07:00,46.0,26.4,27.05,NNW,338,8.1,8.1,46,0.00,CLR,,0.00,WeatherDisplay:10.37,2013-03-11 18:07:00,
2013-03-11 13:12:00,45.9,26.7,27.05,NW,315,12.7,12.7,47,0.00,CLR,,0.00,WeatherDisplay:10.37,2013-03-11 18:12:00,
2013-03-11 13:17:00,45.7,26.6,27.05,NNW,338,10.4,10.4,47,0.00,CLR,,0.00,WeatherDisplay:10.37,2013-03-11 18:17:00,
2013-03-11 13:22:00,45.9,27.8,27.05,NW,315,12.1,12.1,49,0.00,CLR,,0.00,WeatherDisplay:10.37,2013-03-11 18:22:00,
2013-03-11 13:27:00,46.0,28.4,27.05,NW,315,8.1,8.1,50,0.00,CLR,,0.00,WeatherDisplay:10.37,2013-03-11 18:27:00,
2013-03-11 13:33:00,46.4,28.8,27.05,NW,315,5.8,5.8,50,0.00,CLR,,0.00,WeatherDisplay:10.37,2013-03-11 18:33:00,
2013-03-11 13:38:00,46.8,28.6,27.05,NW,315,5.8,5.8,49,0.00,CLR,,0.00,WeatherDisplay:10.37,2013-03-11 18:38:00,
2013-03-11 13:43:00,46.9,28.3,27.04,SW,225,5.8,5.8,48,0.00,CLR,,0.00,WeatherDisplay:10.37,2013-03-11 18:43:00,
2013-03-11 13:48:00,47.5,28.7,27.04,North,0,11.5,11.5,48,0.00,CLR,,0.00,WeatherDisplay:10.37,2013-03-11 18:48:00,
2013-03-11 13:53:00,48.0,29.2,27.04,SW,225,6.9,6.9,48,0.00,CLR,,0.00,WeatherDisplay:10.37,2013-03-11 18:53:00,
2013-03-11 13:58:00,48.9,28.5,27.03,North,0,15.0,15.0,45,0.00,CLR,,0.00,WeatherDisplay:10.37,2013-03-11 18:58:00,
2013-03-11 14:04:00,49.1,28.1,27.03,NW,315,13.8,13.8,44,0.00,CLR,,0.00,WeatherDisplay:10.37,2013-03-11 19:04:00,
2013-03-11 14:09:00,49.3,28.3,27.04,North,0,10.4,10.4,44,0.00,CLR,,0.00,WeatherDisplay:10.37,2013-03-11 19:09:00,
2013-03-11 14:14:00,50.4,28.7,27.04,WNW,292,12.7,12.7,43,0.00,CLR,,0.00,WeatherDisplay:10.37,2013-03-11 19:14:00,
2013-03-11 14:19:00,50.9,28.6,27.03,NW,315,11.5,11.5,42,0.00,CLR,,0.00,WeatherDisplay:10.37,2013-03-11 19:19:00,
2013-03-11 14:24:00,51.1,27.6,27.03,West,270,16.1,16.1,40,0.00,CLR,,0.00,WeatherDisplay:10.37,2013-03-11 19:24:00,
2013-03-11 14:30:00,51.1,27.0,27.03,WNW,292,15.0,15.0,39,0.00,CLR,,0.00,WeatherDisplay:10.37,2013-03-11 19:30:00,
2013-03-11 14:35:00,50.9,28.0,27.03,NW,315,6.9,6.9,41,0.00,CLR,,0.00,WeatherDisplay:10.37,2013-03-11 19:35:00,
2013-03-11 14:40:00,50.9,28.0,27.02,North,0,12.7,12.7,41,0.00,CLR,,0.00,WeatherDisplay:10.37,2013-03-11 19:40:00,
2013-03-11 14:46:00,51.1,29.3,27.02,NNW,338,8.1,8.1,43,0.00,CLR,,0.00,WeatherDisplay:10.37,2013-03-11 19:46:00,
2013-03-11 14:51:00,51.1,29.3,27.02,NW,315,4.6,4.6,43,0.00,CLR,,0.00,WeatherDisplay:10.37,2013-03-11 19:51:00,
2013-03-11 14:56:00,51.3,29.5,27.02,NW,315,6.9,6.9,43,0.00,CLR,,0.00,WeatherDisplay:10.37,2013-03-11 19:56:00,
2013-03-11 15:01:00,51.1,28.2,27.01,NNW,338,9.2,9.2,41,0.00,CLR,,0.00,WeatherDisplay:10.37,2013-03-11 20:01:00,
2013-03-11 15:06:00,51.1,28.2,27.01,NNW,338,4.6,4.6,41,0.00,CLR,,0.00,WeatherDisplay:10.37,2013-03-11 20:06:00,
2013-03-11 15:11:00,51.1,29.9,27.01,North,0,5.8,5.8,44,0.00,CLR,,0.00,WeatherDisplay:10.37,2013-03-11 20:11:00,
2013-03-11 15:16:00,51.3,29.5,27.02,NNW,338,11.5,11.5,43,0.00,CLR,,0.00,WeatherDisplay:10.37,2013-03-11 20:16:00,
2013-03-11 15:22:00,51.4,26.6,27.01,NW,315,10.4,10.4,38,0.00,CLR,,0.00,WeatherDisplay:10.37,2013-03-11 20:22:00,
2013-03-11 15:27:00,51.6,26.2,27.02,NW,315,8.1,8.1,37,0.00,CLR,,0.00,WeatherDisplay:10.37,2013-03-11 20:27:00,
2013-03-11 15:32:00,51.7,25.6,27.17,North,0,8.1,0.0,36,0.00,CLR,,0.00,WeatherDisplay:10.37,2013-03-11 20:32:00,
2013-03-11 15:38:00,51.1,25.0,27.02,WNW,292,6.9,6.9,36,0.00,CLR,,0.00,WeatherDisplay:10.37,2013-03-11 20:38:00,
2013-03-11 15:43:00,50.7,26.0,27.02,NNW,338,8.1,8.1,38,0.00,CLR,,0.00,WeatherDisplay:10.37,2013-03-11 20:43:00,
2013-03-11 15:48:00,50.5,27.7,27.02,NW,315,11.5,11.5,41,0.00,CLR,,0.00,WeatherDisplay:10.37,2013-03-11 20:48:00,
2013-03-11 15:53:00,50.4,28.7,27.03,North,0,10.4,10.4,43,0.00,CLR,,0.00,WeatherDisplay:10.37,2013-03-11 20:53:00,
2013-03-11 15:58:00,50.2,29.1,27.03,North,0,9.2,9.2,44,0.00,CLR,,0.00,WeatherDisplay:10.37,2013-03-11 20:58:00,
2013-03-11 16:03:00,50.2,29.6,27.03,NW,315,13.8,13.8,45,0.00,CLR,,0.00,WeatherDisplay:10.37,2013-03-11 21:03:00,
2013-03-11 16:09:00,50.5,30.0,27.03,West,270,12.7,12.7,45,0.00,CLR,,0.00,WeatherDisplay:10.37,2013-03-11 21:09:00,
2013-03-11 16:14:00,50.5,30.5,27.03,WNW,292,8.1,8.1,46,0.00,CLR,,0.00,WeatherDisplay:10.37,2013-03-11 21:14:00,
2013-03-11 16:19:00,50.4,30.3,27.03,North,0,13.8,13.8,46,0.00,CLR,,0.00,WeatherDisplay:10.37,2013-03-11 21:19:00,
2013-03-11 16:24:00,50.2,29.1,27.03,NW,315,12.7,12.7,44,0.00,CLR,,0.00,WeatherDisplay:10.37,2013-03-11 21:24:00,
2013-03-11 16:30:00,49.5,30.0,27.03,NW,315,10.4,10.4,47,0.00,CLR,,0.00,WeatherDisplay:10.37,2013-03-11 21:30:00,
2013-03-11 16:35:00,49.6,30.7,27.03,WNW,292,8.1,8.1,48,0.00,CLR,,0.00,WeatherDisplay:10.37,2013-03-11 21:35:00,
2013-03-11 16:40:00,49.8,30.9,27.03,West,270,9.2,9.2,48,0.00,CLR,,0.00,WeatherDisplay:10.37,2013-03-11 21:40:00,
2013-03-11 16:45:00,50.2,30.7,27.03,North,0,9.2,9.2,47,0.00,CLR,,0.00,WeatherDisplay:10.37,2013-03-11 21:45:00,
2013-03-11 16:51:00,50.2,30.7,27.03,North,0,8.1,8.1,47,0.00,CLR,,0.00,WeatherDisplay:10.37,2013-03-11 21:51:00,
2013-03-11 16:56:00,50.5,30.5,27.03,NW,315,10.4,10.4,46,0.00,CLR,,0.00,WeatherDisplay:10.37,2013-03-11 21:56:00,
2013-03-11 17:01:00,50.7,30.7,27.03,NW,315,8.1,8.1,46,0.00,CLR,,0.00,WeatherDisplay:10.37,2013-03-11 22:01:00,
2013-03-11 17:06:00,50.7,30.7,27.02,NW,315,8.1,8.1,46,0.00,CLR,,0.00,WeatherDisplay:10.37,2013-03-11 22:06:00,
2013-03-11 17:12:00,51.1,30.5,27.02,NW,315,9.2,9.2,45,0.00,CLR,,0.00,WeatherDisplay:10.37,2013-03-11 22:12:00,
2013-03-11 17:17:00,51.1,31.0,27.02,NNW,338,12.7,12.7,46,0.00,CLR,,0.00,WeatherDisplay:10.37,2013-03-11 22:17:00,
2013-03-11 17:22:00,51.3,30.6,27.02,NW,315,11.5,11.5,45,0.00,CLR,,0.00,WeatherDisplay:10.37,2013-03-11 22:22:00,
2013-03-11 17:27:00,51.3,29.5,27.03,North,0,12.7,12.7,43,0.00,CLR,,0.00,WeatherDisplay:10.37,2013-03-11 22:27:00,
2013-03-11 17:32:00,51.1,29.9,27.03,NW,315,10.7,10.7,44,0.00,CLR,,0.00,WeatherDisplay:10.37,2013-03-11 22:32:00,
2013-03-11 17:37:00,50.9,30.3,27.03,NW,315,10.4,10.4,45,0.00,CLR,,0.00,WeatherDisplay:10.37,2013-03-11 22:37:00,
2013-03-11 17:42:00,50.7,30.1,27.03,WNW,292,8.1,8.1,45,0.00,CLR,,0.00,WeatherDisplay:10.37,2013-03-11 22:42:00,
2013-03-11 17:48:00,50.7,30.7,27.03,NW,315,13.8,13.8,46,0.00,CLR,,0.00,WeatherDisplay:10.37,2013-03-11 22:48:00,
2013-03-11 17:53:00,50.5,32.1,27.03,NW,315,10.4,10.4,49,0.00,CLR,,0.00,WeatherDisplay:10.37,2013-03-11 22:53:00,
2013-03-11 17:58:00,50.0,31.6,27.04,SSW,202,12.7,12.7,49,0.00,CLR,,0.00,WeatherDisplay:10.37,2013-03-11 22:58:00,
2013-03-11 18:03:00,49.6,32.7,27.04,WNW,292,8.1,8.1,52,0.00,CLR,,0.00,WeatherDisplay:10.37,2013-03-11 23:03:00,
2013-03-11 18:08:00,49.3,32.4,27.04,NNW,338,8.1,8.1,52,0.00,CLR,,0.00,WeatherDisplay:10.37,2013-03-11 23:08:00,
2013-03-11 18:13:00,48.9,32.0,27.04,NW,315,8.1,8.1,52,0.00,CLR,,0.00,WeatherDisplay:10.37,2013-03-11 23:13:00,
2013-03-11 18:18:00,48.7,32.4,27.04,NW,315,5.8,5.8,53,0.00,CLR,,0.00,WeatherDisplay:10.37,2013-03-11 23:18:00,
2013-03-11 18:23:00,48.6,32.7,27.04,NW,315,8.1,8.1,54,0.00,CLR,,0.00,WeatherDisplay:10.37,2013-03-11 23:23:00,
2013-03-11 18:28:00,48.4,32.5,27.04,NW,315,6.0,6.0,54,0.00,CLR,,0.00,WeatherDisplay:10.37,2013-03-11 23:28:00,
2013-03-11 18:34:00,48.2,32.3,27.05,North,0,4.6,4.6,54,0.00,CLR,,0.00,WeatherDisplay:10.37,2013-03-11 23:34:00,
2013-03-11 18:39:00,48.0,33.1,27.04,NW,315,5.8,5.8,56,0.00,CLR,,0.00,WeatherDisplay:10.37,2013-03-11 23:39:00,
2013-03-11 18:44:00,47.8,32.9,27.05,NW,315,8.1,8.1,56,0.00,CLR,,0.00,WeatherDisplay:10.37,2013-03-11 23:44:00,
2013-03-11 18:49:00,47.5,32.6,27.05,NW,315,6.9,6.9,56,0.00,CLR,,0.00,WeatherDisplay:10.37,2013-03-11 23:49:00,
2013-03-11 18:54:00,47.3,32.8,27.05,West,270,3.5,0.0,57,0.00,CLR,,0.00,WeatherDisplay:10.37,2013-03-11 23:54:00,
2013-03-11 19:00:00,47.1,32.7,27.04,West,270,0.0,0.0,57,0.00,CLR,,0.00,WeatherDisplay:10.37,2013-03-12 00:00:00,
2013-03-11 19:05:00,47.1,32.7,27.05,NW,315,1.1,0.0,57,0.00,CLR,,0.00,WeatherDisplay:10.37,2013-03-12 00:05:00,
2013-03-11 19:10:00,46.9,33.3,27.05,NW,315,0.0,0.0,59,0.00,CLR,,0.00,WeatherDisplay:10.37,2013-03-12 00:10:00,
2013-03-11 19:16:00,46.6,33.4,27.05,NW,315,1.1,0.0,60,0.00,CLR,,0.00,WeatherDisplay:10.37,2013-03-12 00:16:00,
2013-03-11 19:21:00,46.2,33.5,27.06,NW,315,0.0,0.0,61,0.00,CLR,,0.00,WeatherDisplay:10.37,2013-03-12 00:21:00,
2013-03-11 19:26:00,45.9,33.2,27.05,SW,225,0.0,0.0,61,0.00,CLR,,0.00,WeatherDisplay:10.37,2013-03-12 00:26:00,
2013-03-11 19:32:00,45.5,33.2,27.06,NW,315,1.1,0.0,62,0.00,CLR,,0.00,WeatherDisplay:10.37,2013-03-12 00:32:00,
2013-03-11 19:37:00,45.1,32.9,27.06,SW,225,0.0,0.0,62,0.00,CLR,,0.00,WeatherDisplay:10.37,2013-03-12 00:37:00,
2013-03-11 19:42:00,44.8,32.5,27.06,NW,315,1.1,0.0,62,0.00,CLR,,0.00,WeatherDisplay:10.37,2013-03-12 00:42:00,
2013-03-11 19:47:00,44.8,32.9,27.07,NW,315,3.5,3.5,63,0.00,CLR,,0.00,WeatherDisplay:10.37,2013-03-12 00:47:00,
2013-03-11 19:52:00,44.6,32.8,27.08,NW,315,2.3,2.3,63,0.00,CLR,,0.00,WeatherDisplay:10.37,2013-03-12 00:52:00,
2013-03-11 19:57:00,44.2,32.8,27.08,NW,315,3.5,0.0,64,0.00,CLR,,0.00,WeatherDisplay:10.37,2013-03-12 00:57:00,
2013-03-11 20:02:00,44.1,33.0,27.08,NW,315,2.3,0.0,65,0.00,CLR,,0.00,WeatherDisplay:10.37,2013-03-12 01:02:00,
2013-03-11 20:08:00,43.9,32.9,27.08,NW,315,0.0,0.0,65,0.00,CLR,,0.00,WeatherDisplay:10.37,2013-03-12 01:08:00,
2013-03-11 20:13:00,43.7,32.7,27.08,North,0,1.1,0.0,65,0.00,CLR,,0.00,WeatherDisplay:10.37,2013-03-12 01:13:00,
2013-03-11 20:18:00,43.3,32.4,27.08,NW,315,1.1,0.0,65,0.00,CLR,,0.00,WeatherDisplay:10.37,2013-03-12 01:18:00,
2013-03-11 20:23:00,43.3,32.4,27.08,SW,225,1.1,0.0,65,0.00,CLR,,0.00,WeatherDisplay:10.37,2013-03-12 01:23:00,
2013-03-11 20:29:00,43.2,32.6,27.08,West,270,2.3,2.3,66,0.00,CLR,,0.00,WeatherDisplay:10.37,2013-03-12 01:29:00,
2013-03-11 20:34:00,43.0,32.4,27.08,SW,225,3.5,3.5,66,0.00,CLR,,0.00,WeatherDisplay:10.37,2013-03-12 01:34:00,
2013-03-11 20:39:00,43.0,32.4,27.09,WSW,248,1.1,1.1,66,0.00,CLR,,0.00,WeatherDisplay:10.37,2013-03-12 01:39:00,
2013-03-11 20:44:00,43.0,32.4,27.08,West,270,2.3,2.3,66,0.00,CLR,,0.00,WeatherDisplay:10.37,2013-03-12 01:44:00,
2013-03-11 20:50:00,42.8,32.6,27.09,North,0,1.1,0.0,67,0.00,CLR,,0.00,WeatherDisplay:10.37,2013-03-12 01:50:00,
2013-03-11 20:55:00,42.8,32.6,27.09,NW,315,2.3,2.3,67,0.00,CLR,,0.00,WeatherDisplay:10.37,2013-03-12 01:55:00,
2013-03-11 21:00:00,42.4,32.6,27.10,NW,315,3.5,3.5,68,0.00,CLR,,0.00,WeatherDisplay:10.37,2013-03-12 02:00:00,
2013-03-11 21:05:00,42.4,32.6,27.09,NW,315,1.1,1.1,68,0.00,CLR,,0.00,WeatherDisplay:10.37,2013-03-12 02:05:00,
2013-03-11 21:11:00,41.9,32.5,27.10,NW,315,1.1,1.1,69,0.00,CLR,,0.00,WeatherDisplay:10.37,2013-03-12 02:11:00,
2013-03-11 21:16:00,41.9,32.5,27.11,WNW,292,3.5,3.5,69,0.00,CLR,,0.00,WeatherDisplay:10.37,2013-03-12 02:16:00,
2013-03-11 21:21:00,41.5,32.5,27.11,North,0,3.5,3.5,70,0.00,CLR,,0.00,WeatherDisplay:10.37,2013-03-12 02:21:00,
2013-03-11 21:26:00,41.7,33.0,27.12,NW,315,6.9,6.9,71,0.00,CLR,,0.00,WeatherDisplay:10.37,2013-03-12 02:26:00,
2013-03-11 21:31:00,41.4,33.0,27.12,NNW,338,5.8,5.8,72,0.00,CLR,,0.00,WeatherDisplay:10.37,2013-03-12 02:31:00,
2013-03-11 21:36:00,41.2,32.8,27.12,NW,315,3.5,3.5,72,0.00,CLR,,0.00,WeatherDisplay:10.37,2013-03-12 02:36:00,
2013-03-11 21:41:00,40.8,33.2,27.13,North,0,3.5,3.5,74,0.00,CLR,,0.00,WeatherDisplay:10.37,2013-03-12 02:41:00,
2013-03-11 21:47:00,40.8,33.2,27.13,NW,315,3.5,3.5,74,0.00,CLR,,0.00,WeatherDisplay:10.37,2013-03-12 02:47:00,
2013-03-11 21:52:00,40.8,33.2,27.13,North,0,1.1,1.1,74,0.00,CLR,,0.00,WeatherDisplay:10.37,2013-03-12 02:52:00,
2013-03-11 21:57:00,40.5,32.8,27.13,West,270,0.0,0.0,74,0.00,CLR,,0.00,WeatherDisplay:10.37,2013-03-12 02:57:00,
2013-03-11 22:02:00,40.5,32.8,27.13,North,0,2.3,2.3,74,0.00,CLR,,0.00,WeatherDisplay:10.37,2013-03-12 03:02:00,
2013-03-11 22:07:00,40.3,32.6,27.13,NE,45,0.0,0.0,74,0.00,CLR,,0.00,WeatherDisplay:10.37,2013-03-12 03:07:00,
2013-03-11 22:12:00,40.1,32.1,27.13,NW,315,0.0,0.0,73,0.00,CLR,,0.00,WeatherDisplay:10.37,2013-03-12 03:12:00,
2013-03-11 22:17:00,40.1,31.8,27.13,NW,315,0.0,0.0,72,0.00,CLR,,0.00,WeatherDisplay:10.37,2013-03-12 03:17:00,
2013-03-11 22:22:00,39.9,31.3,27.14,NW,315,0.0,0.0,71,0.00,CLR,,0.00,WeatherDisplay:10.37,2013-03-12 03:22:00,
2013-03-11 22:27:00,39.6,30.9,27.14,SW,225,0.0,0.0,71,0.00,CLR,,0.00,WeatherDisplay:10.37,2013-03-12 03:27:00,
2013-03-11 22:32:00,39.2,30.9,27.15,NW,315,0.0,0.0,72,0.00,CLR,,0.00,WeatherDisplay:10.37,2013-03-12 03:32:00,
2013-03-11 22:38:00,39.0,31.1,27.15,NW,315,0.0,0.0,73,0.00,CLR,,0.00,WeatherDisplay:10.37,2013-03-12 03:38:00,
2013-03-11 22:43:00,39.0,31.4,27.16,NW,315,1.1,0.0,74,0.00,CLR,,0.00,WeatherDisplay:10.37,2013-03-12 03:43:00,
2013-03-11 22:48:00,38.8,31.6,27.17,NW,315,1.1,1.6,75,0.00,CLR,,0.00,WeatherDisplay:10.37,2013-03-12 03:48:00,
2013-03-11 22:53:00,38.8,31.6,27.16,NW,315,0.0,0.0,75,0.00,CLR,,0.00,WeatherDisplay:10.37,2013-03-12 03:53:00,
2013-03-11 22:58:00,38.7,31.1,27.17,NW,315,1.1,1.1,74,0.00,CLR,,0.00,WeatherDisplay:10.37,2013-03-12 03:58:00,
2013-03-11 23:00:00,38.7,31.4,27.16,West,270,1.1,0.0,75,0.00,CLR,,0.00,WeatherDisplay:10.37,2013-03-12 04:00:00,
2013-03-11 23:02:00,38.7,31.4,27.17,West,270,1.1,0.0,75,0.00,CLR,,0.00,WeatherDisplay:10.37,2013-03-12 04:02:00,
2013-03-11 23:07:00,38.5,31.2,27.17,NW,315,1.1,1.6,75,0.00,CLR,,0.00,WeatherDisplay:10.37,2013-03-12 04:07:00,
2013-03-11 23:13:00,38.3,31.1,27.17,NW,315,3.5,0.0,75,0.00,CLR,,0.00,WeatherDisplay:10.37,2013-03-12 04:13:00,
2013-03-11 23:18:00,37.9,30.7,27.17,NNW,338,1.1,0.0,75,0.00,CLR,,0.00,WeatherDisplay:10.37,2013-03-12 04:18:00,
2013-03-11 23:23:00,37.8,30.5,27.17,NW,315,1.1,1.6,75,0.00,CLR,,0.00,WeatherDisplay:10.37,2013-03-12 04:23:00,
2013-03-11 23:29:00,37.4,30.2,27.18,NW,315,2.3,2.3,75,0.00,CLR,,0.00,WeatherDisplay:10.37,2013-03-12 04:29:00,
2013-03-11 23:34:00,37.2,28.7,27.18,NW,315,0.0,0.0,71,0.00,CLR,,0.00,WeatherDisplay:10.37,2013-03-12 04:34:00,
2013-03-11 23:39:00,36.9,28.3,27.18,NW,315,0.0,0.0,71,0.00,CLR,,0.00,WeatherDisplay:10.37,2013-03-12 04:39:00,
2013-03-11 23:44:00,36.9,28.3,27.18,NW,315,0.0,0.0,71,0.00,CLR,,0.00,WeatherDisplay:10.37,2013-03-12 04:44:00,
2013-03-11 23:49:00,36.7,28.2,27.18,NW,315,0.0,0.0,71,0.00,CLR,,0.00,WeatherDisplay:10.37,2013-03-12 04:49:00,
2013-03-11 23:54:00,36.7,28.2,27.18,NW,315,1.1,0.0,71,0.00,CLR,,0.00,WeatherDisplay:10.37,2013-03-12 04:54:00,